Regional Weather Roundup
Issued by NWS Green Bay, WI

Home | Current Version | Previous Version | Graphics & Text | Print | Product List | Glossary Off
Versions: 1 2 3 4 5 6 7 8 9 10 11 12 13 14 15 16 17 18 19 20 21 22 23 24 25 26 27 28 29 30 31 32 33 34 35 36 37 38 39 40 41 42 43 44 45 46 47 48 49 50

000
ASUS43 KGRB 230711
RWRGRB

NORTH-CENTRAL AND NORTHEAST WISCONSIN REGIONAL WEATHER ROUNDUP
NATIONAL WEATHER SERVICE GREEN BAY WI
200 AM CDT SAT MAY 23 2015

WIZ005-009-010>012-018-019-230800-
NORTH CENTRAL WISCONSIN

CITY           SKY/WX    TMP DP  RH WIND       PRES   REMARKS
IRONWOOD       CLEAR     55  30  38 SW6       30.17R
MANITOWISH WTR CLEAR     40  35  84 CALM      30.22S
ARBOR VITAE    CLEAR     42  36  79 CALM      30.23S
EAGLE RIVER    CLEAR     38  31  76 CALM      30.22S
LAND O LAKES   CLEAR     33  32  96 CALM      30.23F
RHINELANDER    CLEAR     39  34  82 CALM      30.24S
PHILLIPS         N/A     39  37  91 CALM      30.23S
ANTIGO         CLEAR     39  34  80 CALM      30.26S
TOMAHAWK       CLEAR     34  32  92 CALM      30.25S
MERRILL        CLEAR     37  36  97 CALM      30.25S
$$

WIZ013-073-230800-
NORTHEAST WISCONSIN

CITY           SKY/WX    TMP DP  RH WIND       PRES   REMARKS
IRON MOUNTAIN  CLEAR     36  29  75 CALM      30.23F
MARINETTE      CLEAR     45  30  57 SW5       30.26S
OCONTO         CLEAR     37  34  90 CALM      30.26S
$$

WIZ017-030-035>037-045-230800-
CENTRAL WISCONSIN

CITY           SKY/WX    TMP DP  RH WIND       PRES   REMARKS
MEDFORD        CLEAR     41  37  86 CALM      30.24S
WAUSAU         CLEAR     43  40  89 E7        30.24R
MOSINEE        CLEAR     46  41  81 CALM      30.26R
MARSHFIELD     CLEAR     50  37  61 CALM      30.24R
WISC RAPIDS    PTCLDY    51  36  56 S6        30.26R
STEVENS POINT  CLEAR     45  37  75 CALM      30.26R
WAUPACA        CLEAR     49  34  56 S3        30.26S
SHAWANO        CLEAR     44  37  74 CALM      30.27R
CLINTONVILLE   CLEAR     43  34  70 CALM      30.26S
$$

WIZ038-039-048-051-230800-
FOX VALLEY

CITY           SKY/WX    TMP DP  RH WIND       PRES   REMARKS
NWS GREEN BAY  CLEAR     44  35  70 CALM      30.27R
APPLETON       CLEAR     45  28  53 S7        30.27S
OSHKOSH        PTCLDY    46  31  55 S6        30.26F
FOND DU LAC    PTCLDY    45  28  51 S3        30.27S
$$

WIZ022-050-052-230800-
EAST CENTRAL WISCONSIN

CITY           SKY/WX    TMP DP  RH WIND       PRES   REMARKS
STURGEON BAY   CLEAR     48  25  40 S7        30.29S
MANITOWOC      CLEAR     47  29  49 CALM      30.28R
SHEBOYGAN      PTCLDY    42  30  62 SW7       30.28R
$$

LMZ563-521-522-541>543-230800-
LAKESHORE

STATION/POSITION TIME  TEMP    WIND        PRES    VSBY  WAVE
                       AIR SEA DIR/SP/G                  HT/PER
                 (UTC) (F)     (DEG/KT/KT) (MB)    (MI)  (FT/S)
SHEBOYGAN LKSHOR 0700   52     230/ 11/ 13 1025.6F
KEWAUNEE LKSHORE 0600   47     200/  2/  5 1024.1F
NORTHPORT PIER   0600   45     160/  3/ 16 1024.7F
N MID LAKE BUOY  0650   41 36  190/  6/  6 1025.5F         0
SISTER BAY LKSHO 0602   45     180/  6/  8   N/A
CHAMBERS ISLAND  0600   44     150/  3/  4 1024.7F
MENOMINEE LKSHOR 0600   50     180/  6/  8 1025.1F
$$


USA.gov is the U.S. government's official web portal to all federal, state and local government web resources and services.